Flag for Switzerland Weather past 2 weeks in Wädenswil, Zurich, Switzerland

Now
75 °F

Mild.


Feels Like: 77 °F
Forecast: 57 / 83 °F
Wind: 5 mph from Northeast

Location: Zurich Town / Ville.

Current Time: Aug 1, 2014 at 6:14:40 PM

Latest Report: Aug 1, 2014 at 5:00 PM


Visibility: N/A

Pressure: 29.77 "Hg

Humidity: 60%

Dew point: 60 °F

Location of WädenswilLocation

Historic Weather in Wädenswil — Graph

°F

Wädenswil temperature yesterday

Maximum temperature yesterday: 75 °F (at 5:00 PM)
Minimum temperature yesterday: 60 °F (at 6:00 AM)
Average temperature yesterday: 66 °F

Past Weeks' High & Low Weather Summary

 TemperatureHumidityPressure
High87 °F (Jul 19, 6:00 PM)99% (Jul 23, 1:00 AM)30.13 "Hg (Jul 23, 1:00 AM)
Low56 °F (Jul 29, 7:00 AM)25% (Jul 18, 3:00 PM)29.72 "Hg (Jul 28, 5:00 PM)
Average66 °F78%29.91 "Hg
* Reported Jul 17 5:00 PM — Aug 1 5:00 PM, Wädenswil, Weather by CustomWeather, © 2014

Note: Actual official high and low records may vary slightly from our data, if they occured in-between our weather recording intervals... More about our weather records

Advertising

Wädenswil weather history for previous 24 hours

 ConditionsComfort  
Time TempWeatherWind HumidityBarometerVisibility
5:00 PM
Aug 1
75 °FMild.5 mph60%29.77 "HgN/A
4:00 PM74 °FMild.6 mph62%29.78 "HgN/A
3:00 PM74 °FMild.3 mph68%29.79 "HgN/A
2:00 PM72 °FScattered clouds.5 mph66%29.81 "HgN/A
1:00 PM71 °FMild.6 mph71%29.83 "HgN/A
12:00 PM67 °FMild.3 mph84%29.85 "HgN/A
11:00 AM63 °FMild.2 mph85%29.88 "HgN/A
10:00 AM63 °FMild.2 mph85%29.88 "HgN/A
9:00 AM62 °FCool.3 mph87%29.88 "HgN/A
8:00 AM60 °FPassing clouds.3 mph93%29.89 "HgN/A
7:00 AM58 °FCool.3 mph94%29.90 "HgN/A
6:00 AM58 °FCool.1 mph94%29.90 "HgN/A
5:00 AM58 °FCool.5 mph94%29.91 "HgN/A
4:00 AM58 °FCool.3 mph93%29.91 "HgN/A
3:00 AM59 °FCool.3 mph92%29.92 "HgN/A
2:00 AM60 °FCool.3 mph90%29.92 "HgN/A
1:00 AM62 °FCool.5 mph86%29.93 "HgN/A
12:00 AM63 °FMild.6 mph81%29.92 "HgN/A
11:00 PM
Jul 31
63 °FMild.5 mph82%29.92 "HgN/A
10:00 PM65 °FMild.5 mph80%29.91 "HgN/A
9:00 PM67 °FMild.5 mph73%29.89 "HgN/A
8:00 PM71 °FPassing clouds.3 mph64%29.88 "HgN/A
7:00 PM74 °FMild.6 mph57%29.87 "HgN/A
6:00 PM74 °FMild.7 mph53%29.88 "HgN/A
Weather by CustomWeather, © 2014

See weather overviewHow to use our weather pages